Simultaneous Nadir Overpasses (SNOs) Predictions

Prediction of SNOs between GOES-16 and METOP-C Satellite Orbit:

Table of predicted SNOs for the next 14.0 days since TLE Epoch: 3/4/2023
Index Date Time (GOES-16) GOES-16 Lat,Lon METOP-C Lat,Lon Distance(km) Time Diff (sec)
1 03/05/2023 14:48:23 0.05, -75.20 0.87, -78.98 430.17 80
2 03/06/2023 14:25:02 0.04, -75.21 -0.20, -73.98 139.91 80
3 03/08/2023 02:46:43 -0.05, -75.21 -0.78, -78.58 383.16 80
4 03/09/2023 02:23:22 -0.05, -75.22 0.31, -73.58 187.23 80
5 03/10/2023 14:44:53 0.05, -75.25 0.69, -78.14 328.97 80
6 03/11/2023 14:21:33 0.05, -75.26 -0.40, -73.14 241.70 80
7 03/13/2023 02:43:12 -0.05, -75.27 -0.60, -77.73 280.57 80
8 03/14/2023 02:19:52 -0.04, -75.28 0.50, -72.73 290.00 80
9 03/15/2023 14:41:23 0.04, -75.31 0.50, -77.30 226.36 80
10 03/16/2023 14:18:04 0.04, -75.32 -0.66, -72.31 344.46 80
11 03/18/2023 02:39:42 -0.04, -75.34 -0.37, -76.89 177.07 80
